Regional Weather Roundup
Issued by NWS

Home | Current Version | Previous Version | Graphics & Text | Print | Product List | Glossary On
Versions: 1 2 3 4 5 6 7 8 9 10 11 12 13 14 15 16 17 18 19 20 21 22 23 24 25 26 27 28 29 30 31 32 33 34 35 36 37 38 39 40 41 42 43 44 45 46 47 48 49 50
000
ASUS45 KBOI 120610
RWRID

IDAHO REGIONAL WEATHER ROUNDUP
NATIONAL WEATHER SERVICE BOISE ID
1100 PM MST THU FEB 11 2016

NOTE: "FAIR" INDICATES FEW OR NO CLOUDS BELOW 12000 FEET
WITH NO SIGNIFICANT WEATHER AND/OR OBSTRUCTIONS TO VISIBILITY

IDZ012-014-120700-
SOUTHWEST IDAHO


CITY           SKY/WX    TMP DP  RH WIND       PRES   REMARKS
BOISE          PTCLDY    37  30  75 SE3       30.33S
CALDWELL       PTCLDY    31  30  96 SE3       30.35R FOG
MOUNTAIN HOME  PTCLDY    35  29  79 SE6       30.31F WCI  30
$$

IDZ016-017-120700-
SOUTHCENTRAL IDAHO


CITY           SKY/WX    TMP DP  RH WIND       PRES   REMARKS
BURLEY         CLEAR     31  28  89 NE6       30.31S WCI  25
JEROME         PTCLDY    30  24  78 NE23      30.31S WCI  17
TWIN FALLS     PTCLDY    31  29  92 E10       30.30F WCI  22
$$

IDZ019>023-120700-
SOUTHEAST IDAHO


CITY           SKY/WX    TMP DP  RH WIND       PRES   REMARKS
IDAHO FALLS    CLOUDY    28  24  85 N5        30.37F WCI  23
POCATELLO      CLOUDY    29  23  78 NE8       30.36F WCI  21
REXBURG        CLOUDY    31  26  82 E7        30.36F WCI  24
$$

IDZ006-010-011-018-031-032-120700-
CENTRAL IDAHO MOUNTAINS


CITY           SKY/WX    TMP DP  RH WIND       PRES   REMARKS
MCCALL         MOCLDY    32  31  96 CALM      30.26F
HAILEY         PTCLDY    32  28  86 CALM      30.36R
STANLEY          N/A     28  23  81 CALM      30.34R
SALMON         CLOUDY    28  27  93 NW3       30.35S
CHALLIS        CLOUDY    31  26  82 CALM      30.33S
$$

IDZ002-004-006-007-026-120700-
NORTHERN IDAHO


CITY           SKY/WX    TMP DP  RH WIND       PRES   REMARKS
LEWISTON       RAIN      48  41  76 SE5       30.23R
LOWELL           N/A     41  39  93 N5        30.29S
COEUR D`ALENE  CLOUDY    39  36  87 E6        30.21S WCI  35
MULLAN PASS    LGT RAIN  34  32  92 VRB6      30.22S WCI  29
$$



USA.gov is the U.S. government's official web portal to all federal, state and local government web resources and services.